Location: Carri�res
(48.9069°N, 2.1792°E)
Time: 19:54:56
(UTC+00:00)

ATLAS 5 CENTAUR R/B - Pass Details

Date: 17 January 2021
Orbit: 511 x 1147 km, 63.3° (Epoch: 16 February)

Event Time Altitude Azimuth Distance (km) Brightness Sun altitude
Rises 17:52:24 0° 212° (SSW) 2,637 5.6 -13.9°
Reaches altitude 10° 17:54:28 10° 209° (SSW) 1,785 4.6 -14.2°
Maximum altitude 17:58:23 66° 128° (SE) 630 1.4 -14.9°
Enters shadow 18:00:57 24° 51° (NE) 1,290 2.7 -15.3°
